,,PA_Meas_PMT16A,,PR_Meas_QMR101_102,,RH_Meas_QMH101,,SR_Meas_QMS101,,TA_Meas_QMH101,,GenWind,,GenWind,
time,status,PA,status,PR,status,RH,status,SR,status,TA,status,DirAvg,status,SpdAvg,
2012-11-23, 07:11:04,VALID,916.887,VALID,0,VALID,96.9851,VALID,147.409,VALID,20.6015,VALID,40,VALID,0,
2012-11-23, 07:14:04,VALID,917.12,VALID,0,VALID,97.0003,VALID,147.946,VALID,20.678,VALID,40,VALID,0,
2012-11-23, 07:15:04,VALID,917.145,VALID,0.2,VALID,96.9927,VALID,147.732,VALID,20.7185,VALID,11,VALID,0,
2012-11-23, 07:56:04,VALID,917.981,VALID,0,VALID,95.8263,VALID,143.112,VALID,20.9722,VALID,47,VALID,0,
2012-11-23, 07:57:04,VALID,917.717,VALID,0,VALID,95.8111,VALID,150.418,VALID,20.9527,VALID,32,VALID,0,
2012-11-23, 07:58:04,VALID,917.94,VALID,0,VALID,95.8111,VALID,159.872,VALID,21.0291,VALID,7,VALID,0,
2012-11-23, 07:59:04,VALID,917.978,VALID,0,VALID,95.6891,VALID,173.517,VALID,20.9901,VALID,2,VALID,0,
2012-11-23, 08:00:04,VALID,917.769,VALID,0,VALID,95.9864,VALID,175.989,VALID,21.0681,VALID,34,VALID,0,
2012-11-23, 08:01:04,VALID,917.826,VALID,0,VALID,96.0169,VALID,160.625,VALID,21.1461,VALID,34,VALID,0,
2012-11-23, 08:02:04,VALID,917.889,VALID,0,VALID,95.6586,VALID,171.584,VALID,21.1266,VALID,278,VALID,0,
2012-11-23, 08:03:04,VALID,917.732,VALID,0,VALID,95.3689,VALID,183.617,VALID,21.0876,INVALID,360,VALID,0,
2012-11-23, 08:04:04,VALID,917.831,VALID,0,VALID,95.3842,VALID,200.055,VALID,21.1071,VALID,4,VALID,0,
2012-11-23, 08:05:04,VALID,918.072,VALID,0,VALID,95.5671,VALID,227.238,VALID,21.1657,VALID,14,VALID,0,
2012-11-23, 08:06:04,VALID,917.939,VALID,0,VALID,95.6434,VALID,225.304,VALID,21.2437,VALID,18,VALID,0,
2012-11-23, 08:07:04,VALID,918.035,VALID,0,VALID,95.4071,VALID,194.576,VALID,21.2632,VALID,9,VALID,0,
2012-11-23, 08:08:04,VALID,917.995,VALID,0,VALID,95.1021,VALID,197.047,VALID,21.2242,VALID,239,VALID,0,
2012-11-23, 08:09:04,VALID,917.888,VALID,0,VALID,95.2317,VALID,209.618,VALID,21.2827,VALID,239,VALID,0,
2012-11-23, 08:10:04,VALID,917.915,VALID,0,VALID,94.9268,VALID,205.213,VALID,21.2437,VALID,240,VALID,0,
2012-11-23, 08:11:04,VALID,918.201,VALID,0,VALID,94.4694,VALID,183.187,VALID,21.2047,VALID,230,VALID,0,
2012-11-23, 08:12:04,VALID,917.99,VALID,0,VALID,93.9891,VALID,172.873,VALID,21.1461,VALID,263,VALID,0,
2012-11-23, 08:13:04,VALID,918.033,VALID,0,VALID,94.1568,VALID,168.038,VALID,21.1657,VALID,260,VALID,0,
2012-11-23, 08:14:04,VALID,917.981,VALID,0,VALID,94.477,VALID,171.906,VALID,21.2632,VALID,260,VALID,0,
2012-11-23, 08:15:04,VALID,918.127,VALID,0,VALID,94.1263,VALID,180.286,VALID,21.2437,VALID,204,VALID,0,
2012-11-23, 08:16:04,VALID,918.069,VALID,0,VALID,93.8366,VALID,193.072,VALID,21.2437,VALID,204,VALID,0,
2012-11-23, 08:17:04,VALID,918.097,VALID,0,VALID,93.7985,VALID,190.386,VALID,21.3022,VALID,204,VALID,0,
2012-11-23, 08:18:04,VALID,917.965,VALID,0,VALID,93.6155,VALID,182.113,VALID,21.3022,VALID,204,VALID,0,
2012-11-23, 08:19:04,VALID,918.068,VALID,0,VALID,94.073,VALID,169.005,VALID,21.3998,VALID,204,VALID,0,
2012-11-23, 08:20:04,VALID,918.219,VALID,0,VALID,93.7604,VALID,166.534,VALID,21.3998,VALID,205,VALID,0,
2012-11-23, 08:21:04,VALID,918.127,VALID,0,VALID,93.2268,VALID,171.154,VALID,21.3006,VALID,262,VALID,0,
2012-11-23, 08:22:04,VALID,918.218,VALID,0,VALID,92.8303,VALID,174.807,VALID,21.3022,VALID,262,VALID,0,
2012-11-23, 08:23:04,VALID,917.965,VALID,0,VALID,92.9447,VALID,182.328,VALID,21.3217,VALID,262,VALID,0,
2012-11-23, 08:24:04,VALID,918.149,VALID,0,VALID,92.8761,VALID,186.088,VALID,21.3803,VALID,262,VALID,0,
2012-11-23, 08:25:04,VALID,918.181,VALID,0,VALID,92.6016,VALID,190.278,VALID,21.3803,VALID,263,VALID,0,
2012-11-23, 08:26:04,VALID,918.201,VALID,0,VALID,92.5406,VALID,196.617,VALID,21.3803,VALID,263,VALID,0,
2012-11-23, 08:27:04,VALID,918.175,VALID,0,VALID,92.9599,VALID,204.89,VALID,21.4794,VALID,263,VALID,0,
2012-11-23, 08:28:04,VALID,918.283,VALID,0,VALID,92.6855,VALID,227.56,VALID,21.4973,VALID,262,VALID,0,
2012-11-23, 08:29:04,VALID,918.162,VALID,0,VALID,93.2039,VALID,234.759,VALID,21.5965,VALID,263,VALID,0,
2012-11-23, 08:30:04,VALID,918.222,VALID,0,VALID,93.7909,VALID,214.882,VALID,21.7315,VALID,263,VALID,0,
2012-11-23, 08:31:04,VALID,918.248,VALID,0,VALID,93.0362,VALID,213.271,VALID,21.79,VALID,262,VALID,0,
2012-11-23, 08:32:04,VALID,917.911,VALID,0,VALID,92.6626,VALID,211.229,VALID,21.829,VALID,263,VALID,0,
2012-11-23, 08:33:04,VALID,918.2,VALID,0,VALID,90.6272,VALID,216.172,VALID,21.8112,VALID,262,VALID,0,
2012-11-23, 08:34:04,VALID,918.737,VALID,0,VALID,90.0021,VALID,223.37,VALID,21.751,VALID,263,VALID,0,
2012-11-23, 08:35:04,VALID,918.384,VALID,0,VALID,90.0707,VALID,228.527,VALID,21.7136,VALID,289,VALID,0,
2012-11-23, 08:36:04,VALID,917.868,VALID,0,VALID,90.5891,VALID,232.288,VALID,21.7526,VALID,289,VALID,0,
2012-11-23, 08:37:04,VALID,918.201,VALID,0,VALID,90.7491,VALID,241.098,VALID,21.8307,VALID,242,VALID,0,
2012-11-23, 08:38:04,VALID,918.243,VALID,0,VALID,89.8267,VALID,266.561,VALID,21.7705,VALID,255,VALID,0,
2012-11-23, 08:39:04,VALID,918.125,VALID,0,VALID,90.7873,VALID,296.538,VALID,21.8095,VALID,255,VALID,0,
2012-11-23, 08:40:04,VALID,918.577,VALID,0,VALID,91.6487,VALID,332.853,VALID,21.9673,VALID,255,VALID,0,
2012-11-23, 08:41:04,VALID,918.288,VALID,0,VALID,90.6577,VALID,300.083,VALID,22.0047,VALID,255,VALID,0,
2012-11-23, 08:42:04,VALID,918.533,VALID,0,VALID,90.1164,VALID,293.099,VALID,22.1039,VALID,288,VALID,0,
2012-11-23, 08:43:04,VALID,918.422,VALID,0,VALID,88.8128,VALID,270.429,VALID,22.0632,VALID,284,VALID,0,
2012-11-23, 08:44:04,VALID,918.156,VALID,0,VALID,89.9106,VALID,266.024,VALID,22.1413,VALID,284,VALID,0,
2012-11-23, 08:45:04,VALID,918.217,VALID,0,VALID,90.1469,VALID,276.876,VALID,22.2388,VALID,344,VALID,0,
2012-11-23, 08:46:04,VALID,918.227,VALID,0,VALID,90.0859,VALID,291.38,VALID,22.3169,VALID,344,VALID,0,
2012-11-23, 08:47:04,VALID,918.106,VALID,0,VALID,90.3832,VALID,348.539,VALID,22.434,VALID,344,VALID,0,
2012-11-23, 08:48:04,VALID,918.127,VALID,0,VALID,89.8725,VALID,392.912,VALID,22.5316,VALID,339,VALID,0,
2012-11-23, 08:49:04,VALID,918.143,VALID,0,VALID,88.6375,VALID,349.506,VALID,22.5901,VALID,344,VALID,0,
2012-11-23, 08:50:04,VALID,918.287,VALID,0,VALID,87.8827,VALID,335.324,VALID,22.6699,VALID,179,VALID,0,
2012-11-23, 08:51:04,VALID,918.358,VALID,0,VALID,87.1509,VALID,356.06,VALID,22.6699,VALID,196,VALID,0,
2012-11-23, 08:52:04,VALID,918.133,VALID,0,VALID,86.4877,VALID,379.697,VALID,22.6309,VALID,218,VALID,0,
2012-11-23, 08:53:04,VALID,918.206,VALID,0,VALID,85.611,VALID,408.706,VALID,22.5901,VALID,244,VALID,0,
2012-11-23, 08:54:04,VALID,918.213,VALID,0,VALID,87.1738,VALID,326.084,VALID,22.6096,VALID,244,VALID,0,
2012-11-23, 08:55:04,VALID,918.282,VALID,0,VALID,86.3428,VALID,327.588,VALID,22.6096,VALID,244,VALID,0,
2012-11-23, 08:56:04,VALID,918.396,VALID,0,VALID,85.832,VALID,316.092,VALID,22.473,VALID,244,VALID,0,
2012-11-23, 08:57:04,VALID,918.442,VALID,0,VALID,86.3352,VALID,281.281,VALID,22.2974,VALID,244,VALID,0,
2012-11-23, 08:58:04,INVALID,915.029,VALID,0,VALID,87.6235,VALID,241.957,VALID,22.2388,VALID,244,VALID,0,
2012-11-23, 08:59:04,VALID,918.229,VALID,0,VALID,87.6769,VALID,213.271,VALID,22.1998,VALID,244,VALID,0,
2012-11-23, 09:00:04,VALID,918.584,VALID,0,VALID,87.7226,VALID,204.998,VALID,22.1413,VALID,244,VALID,0,
2012-11-23, 09:01:04,VALID,918.298,VALID,0,VALID,89.8191,VALID,204.89,VALID,22.1608,VALID,244,VALID,0,
2012-11-23, 09:02:04,VALID,918.307,VALID,0,VALID,90.3299,VALID,211.767,VALID,22.1591,VALID,244,VALID,0,
2012-11-23, 09:03:04,VALID,918.263,VALID,0,VALID,89.1711,VALID,214.775,VALID,22.1803,VALID,247,VALID,0,
2012-11-23, 09:04:04,VALID,918.267,VALID,0,VALID,89.5065,VALID,224.122,VALID,22.1608,VALID,248,VALID,0,
2012-11-23, 09:05:04,VALID,918.44,VALID,0,VALID,89.7505,VALID,263.338,VALID,22.1413,VALID,243,VALID,0,
2012-11-23, 09:06:04,VALID,918.359,VALID,0,VALID,89.9182,VALID,313.621,VALID,22.1005,VALID,246,VALID,0,
2012-11-23, 09:07:04,VALID,918.351,VALID,0,VALID,90.5662,VALID,343.06,VALID,22.2193,VALID,246,VALID,0,
2012-11-23, 09:08:04,VALID,918.172,VALID,0,VALID,90.6653,VALID,400.863,VALID,22.3169,VALID,270,VALID,0,
2012-11-23, 09:09:04,VALID,918.381,VALID,0,VALID,89.9716,VALID,450.501,VALID,22.395,VALID,277,VALID,0,
2012-11-23, 09:10:04,VALID,918.385,VALID,0,VALID,85.8397,VALID,357.672,VALID,22.3754,VALID,277,VALID,0,
2012-11-23, 09:11:04,VALID,918.443,VALID,0,VALID,87.2881,VALID,330.704,VALID,22.4145,VALID,254,VALID,0,
2012-11-23, 09:12:04,VALID,918.438,VALID,0,VALID,88.8662,VALID,312.009,VALID,22.5103,VALID,254,VALID,0,
2012-11-23, 09:13:04,VALID,918.5,VALID,0,VALID,89.0034,VALID,321.571,VALID,22.6682,VALID,326,VALID,0,
2012-11-23, 09:14:04,VALID,918.643,VALID,0,VALID,87.5092,VALID,353.374,VALID,22.7055,VALID,254,VALID,0,
2012-11-23, 09:15:04,VALID,918.38,VALID,0,VALID,86.1446,VALID,366.052,VALID,22.647,VALID,279,VALID,0,
2012-11-23, 09:16:04,VALID,918.386,VALID,0,VALID,87.8294,VALID,398.929,VALID,22.6487,VALID,276,VALID,0,
2012-11-23, 09:17:04,VALID,918.427,VALID,0,VALID,87.3491,VALID,333.497,VALID,22.647,VALID,280,VALID,0,
2012-11-23, 09:18:04,VALID,918.452,VALID,0,VALID,88.5841,VALID,306.852,VALID,22.725,VALID,280,VALID,0,
2012-11-23, 09:19:04,VALID,918.355,VALID,0,VALID,88.3097,VALID,310.72,VALID,22.8031,VALID,280,VALID,0,
2012-11-23, 09:20:04,VALID,918.266,VALID,0,VALID,87.7684,VALID,295.248,VALID,22.9397,VALID,285,VALID,0,
2012-11-23, 09:21:04,VALID,918.185,VALID,0,VALID,86.8002,VALID,268.495,VALID,22.9592,VALID,286,VALID,0,
2012-11-23, 09:22:04,VALID,918.532,VALID,0,VALID,86.3123,VALID,266.561,VALID,22.9787,VALID,30,VALID,0,
2012-11-23, 09:23:04,VALID,918.212,VALID,0,VALID,86.8993,VALID,280.099,VALID,22.9787,VALID,10,VALID,0,
2012-11-23, 09:24:04,VALID,918.509,VALID,0,VALID,86.2971,VALID,300.191,VALID,23.0373,VALID,10,VALID,0,
2012-11-23, 09:25:04,INVALID,916.291,VALID,0,VALID,85.0011,VALID,318.885,VALID,23.0568,VALID,336,VALID,0,
2012-11-23, 09:26:04,VALID,918.177,VALID,0,VALID,84.9477,VALID,347.787,VALID,22.9787,VALID,228,VALID,0,
2012-11-23, 09:27:04,VALID,918.467,VALID,0,VALID,85.4966,VALID,348.217,VALID,23.0391,VALID,192,VALID,0,
2012-11-23, 09:28:04,VALID,918.374,VALID,0,VALID,83.5145,VALID,346.927,VALID,23.0976,VALID,316,VALID,0,
2012-11-23, 09:29:04,VALID,918.49,VALID,0,VALID,84.4979,VALID,331.993,VALID,23.1171,VALID,264,VALID,0,
2012-11-23, 09:30:04,VALID,918.431,VALID,0,VALID,84.6504,VALID,303.736,VALID,23.1171,VALID,285,VALID,0,
2012-11-23, 09:31:04,VALID,918.445,VALID,0,VALID,83.5526,VALID,279.562,VALID,23.0195,VALID,250,VALID,0,
2012-11-23, 09:32:04,VALID,919.026,VALID,0,VALID,86.48,VALID,255.602,VALID,23.0586,VALID,251,VALID,0,
2012-11-23, 09:33:04,VALID,918.398,VALID,0,VALID,86.5639,VALID,229.924,VALID,23.1367,VALID,352,VALID,0,
2012-11-23, 09:34:04,VALID,918.516,VALID,0,VALID,86.4724,VALID,206.18,VALID,23.2343,VALID,17,VALID,0,
2012-11-23, 09:35:04,VALID,918.407,VALID,0,VALID,85.0087,VALID,187.162,VALID,23.2343,VALID,48,VALID,0,
2012-11-23, 09:36:04,VALID,919.739,VALID,0,VALID,85.0087,VALID,177.923,VALID,23.1952,VALID,357,VALID,0,
2012-11-23, 09:37:04,VALID,918.622,VALID,0,VALID,85.893,VALID,182.005,VALID,23.1171,VALID,346,VALID,0,
2012-11-23, 09:38:04,VALID,918.529,VALID,0,VALID,85.6033,VALID,195.435,VALID,23.0781,VALID,321,VALID,0,
2012-11-23, 09:39:04,VALID,918.799,VALID,0,VALID,86.5944,VALID,209.51,VALID,23.1154,VALID,356,VALID,0,
2012-11-23, 09:40:04,VALID,918.571,VALID,0,VALID,86.8993,VALID,221.651,VALID,23.1367,VALID,30,VALID,0,
2012-11-23, 09:41:04,VALID,917.126,VALID,0,VALID,85.9616,VALID,228.85,VALID,23.0959,VALID,73,VALID,0,
2012-11-23, 09:42:04,VALID,918.489,VALID,0,VALID,85.7787,VALID,230.032,VALID,23.0781,VALID,59,VALID,0,
2012-11-23, 09:43:04,VALID,918.405,VALID,0,VALID,85.5805,VALID,235.511,VALID,23.0568,VALID,328,VALID,0,
2012-11-23, 09:44:04,VALID,918.665,VALID,0,VALID,85.7482,VALID,236.585,VALID,23.0391,VALID,323,VALID,0,
2012-11-23, 09:45:04,VALID,918.848,VALID,0,VALID,85.8625,VALID,247.222,VALID,22.9592,VALID,32,VALID,0,
2012-11-23, 09:46:04,VALID,918.671,VALID,0,VALID,86.5334,VALID,256.999,VALID,22.9592,VALID,359,VALID,0,
2012-11-23, 09:47:04,VALID,918.376,VALID,0,VALID,86.8383,VALID,264.735,VALID,22.9983,VALID,35,VALID,0,
2012-11-23, 09:48:04,VALID,918.489,VALID,0,VALID,86.3047,VALID,267.099,VALID,23.1171,VALID,35,VALID,0,
2012-11-23, 09:49:04,VALID,918.524,VALID,0,VALID,84.3607,VALID,262.479,VALID,23.1171,VALID,312,VALID,0,
2012-11-23, 09:50:04,VALID,918.653,VALID,0,VALID,84.7953,VALID,256.677,VALID,23.0568,VALID,350,VALID,0,
2012-11-23, 09:51:04,VALID,918.439,VALID,0,VALID,85.367,VALID,251.95,VALID,23.0763,VALID,16,VALID,0,
2012-11-23, 09:52:04,VALID,919.339,VALID,0,VALID,85.1764,VALID,249.049,VALID,23.0959,VALID,14,VALID,0,
2012-11-23, 09:53:04,VALID,918.773,VALID,0,VALID,86.2361,VALID,248.619,VALID,23.2147,VALID,21,VALID,0,
2012-11-23, 09:54:04,VALID,918.457,VALID,0,VALID,84.78,VALID,241.85,VALID,23.2147,VALID,39,VALID,0,
2012-11-23, 09:55:04,INVALID,915.638,VALID,0,VALID,84.8334,VALID,233.362,VALID,23.1739,VALID,16,VALID,0,
2012-11-23, 09:56:04,VALID,918.466,VALID,0,VALID,84.3379,VALID,226.701,VALID,23.1544,VALID,316,VALID,0,
2012-11-23, 09:57:04,VALID,918.918,VALID,0,VALID,85.611,VALID,221.973,VALID,23.1952,VALID,17,VALID,0,
2012-11-23, 09:58:04,VALID,918.442,VALID,0,VALID,84.2921,VALID,212.411,VALID,23.1935,VALID,17,VALID,0,
2012-11-23, 09:59:04,VALID,918.455,VALID,0,VALID,83.4383,VALID,197.047,VALID,23.1757,VALID,17,VALID,0,
2012-11-23, 10:00:04,VALID,918.385,VALID,0,VALID,82.9504,VALID,185.551,VALID,23.1349,VALID,35,VALID,0,
2012-11-23, 10:01:04,VALID,918.512,VALID,0,VALID,84.1549,VALID,176.311,VALID,23.0568,VALID,33,VALID,0,
2012-11-23, 10:02:04,VALID,918.403,VALID,0,VALID,86.3962,VALID,168.79,VALID,23.0195,VALID,32,VALID,0,
2012-11-23, 10:03:04,VALID,918.498,VALID,0,VALID,86.1141,VALID,164.6,VALID,22.961,VALID,19,VALID,0,
2012-11-23, 10:04:04,VALID,918.689,VALID,0,VALID,86.9069,VALID,165.782,VALID,22.9202,VALID,46,VALID,0,
2012-11-23, 10:05:04,VALID,918.482,VALID,0,VALID,86.6554,VALID,170.939,VALID,22.9397,VALID,25,VALID,0,
2012-11-23, 10:06:04,VALID,918.43,VALID,0,VALID,87.2957,VALID,184.154,VALID,22.8812,VALID,33,VALID,0,
2012-11-23, 10:07:04,VALID,916.756,VALID,0,VALID,88.9805,VALID,201.882,VALID,22.8812,VALID,34,VALID,0,
2012-11-23, 10:08:04,VALID,918.464,VALID,0,VALID,87.4177,VALID,221.221,VALID,22.8421,VALID,358,VALID,0,
2012-11-23, 10:09:04,VALID,918.44,VALID,0,VALID,88.2715,VALID,235.511,VALID,22.7836,VALID,20,VALID,0,
2012-11-23, 10:10:04,VALID,918.28,VALID,0,VALID,88.5612,VALID,241.957,VALID,22.8048,VALID,359,VALID,0,
2012-11-23, 10:11:04,VALID,918.561,VALID,0,VALID,87.6693,VALID,243.139,VALID,22.7836,VALID,5,VALID,0,
2012-11-23, 10:12:04,VALID,918.433,VALID,0,VALID,88.2105,VALID,248.726,VALID,22.8634,VALID,15,VALID,0,
2012-11-23, 10:13:04,VALID,918.89,VALID,0,VALID,88.0886,VALID,262.801,VALID,22.9024,VALID,15,VALID,0,
2012-11-23, 10:14:04,VALID,918.625,VALID,0,VALID,88.8204,VALID,255.71,VALID,22.961,VALID,17,VALID,0,
2012-11-23, 10:15:04,VALID,918.324,VALID,0,VALID,87.3643,VALID,238.949,VALID,22.961,VALID,25,VALID,0,
2012-11-23, 10:16:04,VALID,918.946,VALID,0,VALID,89.1482,VALID,237.23,VALID,23.0781,VALID,25,VALID,0,
2012-11-23, 10:17:04,VALID,918.151,VALID,0,VALID,88.1343,VALID,248.511,VALID,23.1367,VALID,25,VALID,0,
2012-11-23, 10:18:04,VALID,918.409,VALID,0,VALID,86.419,VALID,253.883,VALID,23.1349,VALID,25,VALID,0,
2012-11-23, 10:19:04,VALID,918.496,VALID,0,VALID,85.9921,VALID,265.595,VALID,23.1739,VALID,8,VALID,0,
2012-11-23, 10:20:04,VALID,918.373,VALID,0,VALID,84.8791,VALID,242.28,VALID,23.1367,VALID,23,VALID,0,
2012-11-23, 10:21:04,VALID,917.931,VALID,0,VALID,87.7989,VALID,209.08,VALID,23.1562,VALID,32,VALID,0,
2012-11-23, 10:22:04,VALID,918.305,VALID,0,VALID,87.7608,VALID,180.501,VALID,23.1154,VALID,32,VALID,0,
2012-11-23, 10:23:04,VALID,918.441,VALID,0,VALID,84.8334,VALID,165.567,VALID,23.0781,VALID,327,VALID,0,
2012-11-23, 10:24:04,VALID,918.11,VALID,0,VALID,86.7926,VALID,161.269,VALID,23.0195,VALID,272,VALID,0,
2012-11-23, 10:25:04,VALID,918.376,VALID,0,VALID,87.5244,VALID,183.402,VALID,22.9787,VALID,272,VALID,0,
2012-11-23, 10:26:04,VALID,918.391,VALID,0,VALID,88.3249,VALID,206.932,VALID,23,VALID,272,VALID,0,
2012-11-23, 10:27:04,VALID,918.488,VALID,0,VALID,88.6832,VALID,214.345,VALID,22.9787,VALID,272,VALID,0,
2012-11-23, 10:28:04,VALID,918.668,VALID,0,VALID,88.2715,VALID,213.593,VALID,22.9397,VALID,272,VALID,0,
2012-11-23, 10:29:04,VALID,918.412,VALID,0,VALID,87.25,VALID,213.808,VALID,22.9024,VALID,272,VALID,0,
2012-11-23, 10:30:04,VALID,918.414,VALID,0,VALID,88.2029,VALID,211.337,VALID,22.7836,VALID,226,VALID,0,
2012-11-23, 10:31:04,VALID,919.125,VALID,0,VALID,88.4926,VALID,198.444,VALID,22.7072,VALID,250,VALID,0,
2012-11-23, 10:32:04,VALID,918.429,VALID,0,VALID,87.8599,VALID,171.261,VALID,22.5511,VALID,265,VALID,0,
2012-11-23, 10:33:04,VALID,918.492,VALID,0,VALID,86.5791,VALID,142.789,VALID,22.3542,VALID,261,VALID,0,
2012-11-23, 10:42:04,VALID,919.614,VALID,0,VALID,92.0451,VALID,146.227,VALID,21.9851,VALID,356,VALID,0,
2012-11-23, 10:43:04,VALID,918.294,VALID,0,VALID,93.0438,VALID,172.013,VALID,22.0047,VALID,28,VALID,0,
2012-11-23, 10:44:04,VALID,918.324,VALID,0,VALID,93.3182,VALID,193.502,VALID,22.0437,VALID,38,VALID,0,
2012-11-23, 10:45:04,VALID,918.292,VALID,0,VALID,93.8671,VALID,214.667,VALID,22.1201,VALID,38,VALID,0,
2012-11-23, 10:46:04,VALID,917.976,VALID,0,VALID,93.3945,VALID,234.544,VALID,22.1429,VALID,38,VALID,0,
2012-11-23, 10:47:04,VALID,918.347,VALID,0,VALID,93.6079,VALID,252.916,VALID,22.182,VALID,38,VALID,0,
2012-11-23, 10:48:04,VALID,918.334,VALID,0,VALID,93.8061,VALID,262.694,VALID,22.2779,VALID,38,VALID,0,
2012-11-23, 10:49:04,VALID,918.507,VALID,0,VALID,92.7998,VALID,260.975,VALID,22.2583,VALID,38,VALID,0,
2012-11-23, 10:50:04,VALID,918.288,VALID,0,VALID,92.8456,VALID,261.834,VALID,22.3169,VALID,38,VALID,0,
2012-11-23, 10:51:04,VALID,918.273,VALID,0,VALID,92.9142,VALID,271.396,VALID,22.4162,VALID,38,VALID,0,
2012-11-23, 10:52:04,VALID,917.994,VALID,0,VALID,92.6474,VALID,292.455,VALID,22.434,VALID,38,VALID,0,
2012-11-23, 10:53:04,VALID,917.961,VALID,0,VALID,91.9155,VALID,312.761,VALID,22.473,VALID,38,VALID,0,
2012-11-23, 10:54:04,VALID,918.372,VALID,0,VALID,92.0223,VALID,320.927,VALID,22.5706,VALID,38,VALID,0,
2012-11-23, 10:55:04,VALID,917.781,VALID,0,VALID,91.359,VALID,356.167,VALID,22.6504,VALID,38,VALID,0,
2012-11-23, 10:56:04,VALID,918.501,VALID,0,VALID,91.0388,VALID,393.987,VALID,22.7675,VALID,37,VALID,0,
2012-11-23, 10:57:04,VALID,918.287,VALID,0,VALID,86.9527,VALID,400.541,VALID,22.7055,VALID,315,VALID,0,
2012-11-23, 10:58:04,VALID,918.701,VALID,0,VALID,87.1814,VALID,336.935,VALID,22.7641,VALID,315,VALID,0,
2012-11-23, 10:59:04,VALID,918.167,VALID,0,VALID,87.1051,VALID,304.488,VALID,22.8616,VALID,328,VALID,0,
2012-11-23, 11:00:04,VALID,918.144,VALID,0,VALID,85.8778,VALID,288.802,VALID,22.9024,VALID,334,VALID,0,
2012-11-23, 11:01:04,VALID,918.043,VALID,0,VALID,88.363,VALID,284.934,VALID,22.9397,VALID,348,VALID,0,
2012-11-23, 11:02:04,VALID,918.177,VALID,0,VALID,88.5765,VALID,289.661,VALID,22.9983,VALID,348,VALID,0,
2012-11-23, 11:03:04,VALID,918.076,VALID,0,VALID,85.1078,VALID,296.752,VALID,23,VALID,335,VALID,0,
2012-11-23, 11:04:04,VALID,918.09,VALID,0,VALID,86.8002,VALID,305.025,VALID,23.0213,VALID,335,VALID,0,
2012-11-23, 11:05:04,VALID,918.112,VALID,0,VALID,85.7253,VALID,308.356,VALID,23.0195,VALID,335,VALID,0,
2012-11-23, 11:06:04,VALID,918.015,VALID,0,VALID,85.6415,VALID,355.845,VALID,23.0781,VALID,335,VALID,0,
2012-11-23, 11:07:04,VALID,918.293,VALID,0,VALID,87.3796,VALID,352.944,VALID,23.2147,VALID,335,VALID,0,
2012-11-23, 11:08:04,VALID,918.161,VALID,0,VALID,84.7724,VALID,471.774,VALID,23.252,VALID,335,VALID,0,
2012-11-23, 11:09:04,INVALID,915.84,VALID,0,VALID,83.202,VALID,560.198,VALID,23.3319,VALID,335,VALID,0,
2012-11-23, 11:10:04,VALID,917.909,VALID,0,VALID,83.6212,VALID,471.667,VALID,23.3904,VALID,194,VALID,0,
2012-11-23, 11:11:04,VALID,917.994,VALID,0,VALID,83.8195,VALID,403.227,VALID,23.5058,VALID,185,VALID,0,
2012-11-23, 11:12:04,VALID,917.81,VALID,0,VALID,84.963,VALID,551.173,VALID,23.5661,VALID,173,VALID,0,
2012-11-23, 11:13:04,VALID,917.952,VALID,0,VALID,86.9603,VALID,424.393,VALID,23.4703,VALID,159,VALID,0,
2012-11-23, 11:14:04,VALID,918.01,VALID,0,VALID,86.9222,VALID,350.688,VALID,23.3727,VALID,179,VALID,0,
2012-11-23, 11:15:04,VALID,918.038,VALID,0,VALID,88.0809,VALID,309.968,VALID,23.2538,VALID,167,VALID,0,
2012-11-23, 11:16:04,VALID,918.072,VALID,0,VALID,89.3922,VALID,289.232,VALID,23.197,VALID,182,VALID,0,
2012-11-23, 11:17:04,VALID,918.201,VALID,0,VALID,88.668,VALID,286.223,VALID,23.0976,VALID,145,VALID,0,
2012-11-23, 11:18:04,VALID,917.934,VALID,0,VALID,88.2105,VALID,284.289,VALID,23.0603,VALID,170,VALID,0,
2012-11-23, 11:19:04,VALID,917.877,VALID,0,VALID,89.1177,VALID,274.297,VALID,23,VALID,176,VALID,0,
2012-11-23, 11:20:04,VALID,917.776,VALID,0,VALID,89.3541,VALID,264.413,VALID,23.0018,VALID,157,VALID,0,
2012-11-23, 11:21:04,VALID,917.819,VALID,0,VALID,90.063,VALID,244.858,VALID,23.0391,VALID,132,VALID,0,
2012-11-23, 11:22:04,VALID,917.802,VALID,0,VALID,89.1482,VALID,210.8,VALID,23.0781,VALID,75,VALID,0,
2012-11-23, 11:23:04,VALID,917.812,VALID,0,VALID,89.9944,VALID,176.848,VALID,23.0586,VALID,80,VALID,0,
2012-11-23, 11:30:04,VALID,917.689,VALID,0,VALID,88.889,VALID,145.26,VALID,22.686,VALID,61,VALID,0,
2012-11-23, 11:31:04,VALID,917.971,VALID,0,VALID,89.659,VALID,168.468,VALID,22.6079,VALID,52,VALID,0,
2012-11-23, 11:32:04,VALID,917.678,VALID,0,VALID,90.7568,VALID,180.394,VALID,22.6096,VALID,9,VALID,0,
2012-11-23, 11:33:04,VALID,917.63,VALID,0,VALID,91.7935,VALID,189.956,VALID,22.6665,VALID,9,VALID,0,
2012-11-23, 11:34:04,VALID,917.638,VALID,0,VALID,91.4276,VALID,201.13,VALID,22.7463,VALID,2,VALID,0,
2012-11-23, 11:35:04,VALID,917.566,VALID,0,VALID,90.5662,VALID,194.254,VALID,22.7658,VALID,356,VALID,0,
2012-11-23, 11:36:04,VALID,917.599,VALID,0,VALID,90.2536,VALID,172.121,VALID,22.8031,VALID,2,VALID,0,
2012-11-23, 11:57:04,VALID,917.398,VALID,0,VALID,93.8671,VALID,145.905,VALID,21.125,VALID,180,VALID,0,
2012-11-23, 11:58:04,VALID,917.409,VALID,0.2,VALID,94.1416,VALID,158.583,VALID,21.086,VALID,200,VALID,0,
2012-11-23, 11:59:04,VALID,917.369,VALID,0,VALID,94.3855,VALID,169.112,VALID,21.0665,VALID,174,VALID,0,
2012-11-23, 12:00:04,VALID,916.438,VALID,0,VALID,94.5075,VALID,177.278,VALID,21.0681,VALID,187,VALID,0,
2012-11-23, 12:01:04,VALID,917.303,VALID,0.2,VALID,94.6981,VALID,187.485,VALID,21.0681,VALID,219,VALID,0,
2012-11-23, 12:02:04,VALID,917.253,VALID,0,VALID,94.7591,VALID,197.369,VALID,21.0275,VALID,216,VALID,0,
2012-11-23, 12:03:04,VALID,917.322,VALID,0,VALID,94.8887,VALID,209.51,VALID,21.0876,VALID,216,VALID,0,
2012-11-23, 12:04:04,VALID,917.429,VALID,0.2,VALID,95.0259,VALID,221.544,VALID,21.1071,VALID,216,VALID,0,
2012-11-23, 12:05:04,VALID,917.257,VALID,0,VALID,95.1326,VALID,228.85,VALID,21.1461,VALID,216,VALID,0,
2012-11-23, 12:06:04,VALID,917.293,VALID,0,VALID,95.1707,VALID,232.073,VALID,21.1657,VALID,216,VALID,0,
2012-11-23, 12:07:04,VALID,917.363,VALID,0.2,VALID,95.4757,VALID,235.726,VALID,21.2421,VALID,216,VALID,0,
2012-11-23, 12:08:04,VALID,917.04,VALID,0.2,VALID,95.5138,VALID,241.528,VALID,21.3217,VALID,357,VALID,0,
2012-11-23, 12:09:04,VALID,917.166,VALID,0,VALID,94.942,VALID,242.172,VALID,21.2827,VALID,1,VALID,0,
2012-11-23, 12:10:04,VALID,917.205,VALID,0.2,VALID,95.064,VALID,241.743,VALID,21.3234,VALID,320,VALID,0,
2012-11-23, 12:11:04,VALID,917.322,VALID,0.2,VALID,94.8734,VALID,239.379,VALID,21.2827,VALID,277,VALID,0,
2012-11-23, 12:12:04,VALID,918.045,VALID,0,VALID,95.0716,VALID,237.015,VALID,21.3429,VALID,277,VALID,0,
2012-11-23, 12:13:04,VALID,917.191,VALID,0.2,VALID,95.2012,VALID,224.767,VALID,21.3803,VALID,277,VALID,0,
2012-11-23, 12:14:04,VALID,917.174,VALID,0.2,VALID,94.881,VALID,215.527,VALID,21.3412,VALID,277,VALID,0,